Hourly Weather Roundup
Issued by NWS Central Illinois

Home | Current Version | Previous Version | Text Only | Print | Product List | Glossary On
Versions: 1 2 3 4 5 6 7 8 9 10 11 12 13 14 15 16 17 18 19 20 21 22 23 24 25 26 27 28 29 30 31 32 33 34 35 36 37 38 39 40 41 42 43 44 45 46 47 48 49 50
000
NZUS43 KILX 302310
HWRILX

AREA WEATHER ROUNDUP
NATIONAL WEATHER SERVICE, LINCOLN IL
600 PM CDT THU JUL 30 2015


CITY           SKY/WX    TMP DP  RH WIND       PRES   REMARKS
BLOOMINGTON    SUNNY     87  62  42 NW9       30.08F HX  87
CHAMPAIGN      SUNNY     84  63  49 W8        30.07F HX  85
DANVILLE       SUNNY     82  64  54 W6        30.04F HX  83
DECATUR        SUNNY     88  60  38 W10       30.07F HX  87
EFFINGHAM      MOSUNNY   86  57  36 W8        30.09F HX  85
FLORA          MOSUNNY   85  62  44 NW6       30.08F HX  85
GALESBURG      SUNNY     84  66  54 W8        30.08F HX  86
JACKSONVILLE   SUNNY     87  66  48 W8        30.09F HX  89
LACON          SUNNY     85  64  49 W7        30.04F HX  86
LAWRENCEVILLE  MOSUNNY   84  63  49 NW10      30.07F HX  85
LITCHFIELD     MOSUNNY   83  64  51 W7        30.11F HX  84
$$


CITY           SKY/WX    TMP DP  RH WIND       PRES   REMARKS
LINCOLN        SUNNY     88  60  38 W5        30.06F HX  87
MACOMB         SUNNY     85  65  52 W10       30.11F HX  86
MATTOON        SUNNY     87  59  38 NW9       30.07F HX  86
MT CARMEL AP   MOSUNNY   86  61  42 NW3       30.07F HX  86
OLNEY-NOBLE AP PTSUNNY   82  64  54 NW6       30.08F HX  84
PARIS          SUNNY     85  63  48 NW7       30.07F HX  85
PEORIA         SUNNY     88  63  43 W12       30.07F HX  89
PONTIAC        SUNNY     84  66  55 W7        30.06F HX  86
RANTOUL        SUNNY     86  63  45 NW10      30.07F HX  87
ROBINSON       MOSUNNY   84  66  54 W7        30.07F HX  86
SPRINGFIELD    SUNNY     87  65  47 W9        30.09F HX  89
TAYLORVILLE    SUNNY     82  64  54 W8        30.08F HX  84
$$

...REGIONAL REPORTS...


CITY           SKY/WX    TMP DP  RH WIND       PRES   REMARKS
CHICAGO O`HARE MOSUNNY   86  53  32 NW16G26   30.00F HX  84
KANKAKEE       SUNNY     85  63  47 W10       30.04F HX  85
MOLINE         SUNNY     87  64  46 W12       30.05F HX  88
MOUNT STERLING NOT AVBL
MOUNT VERNON   MOSUNNY   86  63  45 N3        30.09F HX  87
PITTSFIELD     SUNNY     87  63  44 W5        30.11F HX  87
QUINCY         SUNNY     86  62  44 W10       30.11F HX  86
ROCKFORD       SUNNY     85  60  42 W10       30.03F HX  85
$$


CITY           SKY/WX    TMP DP  RH WIND       PRES   REMARKS
BURLINGTON     SUNNY     86  64  47 W10G17    30.09F HX  87
CEDAR RAPIDS   SUNNY     83  68  60 W9        30.07F HX  86
DES MOINES     MOSUNNY   87  56  34 W13       30.11S HX  85
KIRKSVILLE     SUNNY     86  62  44 W8        30.14F HX  86
OTTUMWA        SUNNY     83  65  54 W8        30.09F HX  85
ST LOUIS       PTSUNNY   88  62  41 NW7       30.11F HX  88
$$


CITY           SKY/WX    TMP DP  RH WIND       PRES   REMARKS
TERRE HAUTE    SUNNY     85  60  42 NW7       30.06F HX  85
EVANSVILLE     MOSUNNY   86  61  42 NW7       30.07F HX  86
INDIANAPOLIS   MOSUNNY   84  56  38 W13       30.05F HX  83
LAFAYETTE      SUNNY     82  59  45 W8        30.04F HX  82
MADISON        MOSUNNY   85  54  34 NW8       30.00S HX  83
MILWAUKEE      MOSUNNY   87  49  26 W20G31    29.97F HX  84
$$




USA.gov is the U.S. government's official web portal to all federal, state and local government web resources and services.